Location: downtown San Diego
(32.7310°N, 117.1990°W)
Time: 08:17:32
(UTC-07:00)

Cosmos 1269 Rocket - Pass Details

Date: 14 June 2018
Orbit: 773 x 778 km, 74.1° (Epoch: 19 August)

Event Time Altitude Azimuth Distance (km) Brightness Sun altitude
Exits shadow 22:52:15 81° 278° (W) 790 4.0 -27.4°
Maximum altitude 22:52:18 81° 286° (WNW) 790 4.0 -27.4°
Drops below altitude 10° 22:57:36 10° 14° (NNE) 2,333 7.0 -28.0°
Sets 23:00:00 0° 16° (NNE) 3,264 7.9 -28.2°
